Weather History for Saint Paul Island, AK

Change the Weather History Date:

Saturday, February 16, 2013

  Actual Average Record
Temperature  
Mean Temperature 4 °F 24 °F  
Max Temperature 8 °F 29 °F 40 °F (1980)
Min Temperature 0 °F 20 °F -14 °F (1971)
Degree Days  
Heating Degree Days 61 41  
Month to date heating degree days 781 656  
Since 1 July heating degree days 6849 6435  
Cooling Degree Days 0    
Month to date cooling degree days 0  
Year to date cooling degree days 0  
Moisture  
Dew Point 1 °F    
Average Humidity 0    
Maximum Humidity 0    
Minimum Humidity 0    
Precipitation  
Precipitation 0.01 in 0.05 in 0.35 in (1994)
Month to date precipitation 0.70 0.79  
Year to date precipitation 2.11 2.37  
Snow  
Snow 0.10 in 0.30 in 2.50 in (1972)
Month to date snowfall 8.5 6.0  
Since 1 July snowfall 35.4 41.0  
Snow Depth 16.00 in    
Sea Level Pressure  
Sea Level Pressure 29.94 in    
Wind  
Wind Speed 25 mph (NNE)    
Max Wind Speed 36 mph    
Max Gust Speed 44 mph    
Visibility 2 miles    
Events Snow    
T = Trace of Precipitation, MM = Missing Value Source: NWS Daily Summary

Daily Weather History Graph

Daily Weather History Graph

Search for Another Location

Airport:

Trip Planner

Search our weather history database for the weather conditions in past years. The results will help you decide how hot, cold, wet, or windy it might be!

Date:

Astronomy

Feb. 16, 2013 Rise Set
Actual Time 9:45 AM AKST 7:25 PM AKST
Civil Twilight 9:05 AM AKST 8:04 PM AKST
Nautical Twilight 8:21 AM AKST 8:49 PM AKST
Astronomical Twilight 7:36 AM AKST 9:34 PM AKST
Moon 11:37 AM AKST (2/16) 3:04 AM AKST (2/16)
Length of Visible Light 10h 59m
Length of Day
9h 39m
Waxing Crescent, 41% of the Moon is Illuminated
Feb 16
Waxing Crescent
Feb 17
First Quarter
Feb 25
Full
Mar 4
Last Quarter
Mar 11
New

Hourly Weather History & Observations

Time (AKST) Temp. Windchill Dew Point Humidity Pressure Visibility Wind Dir Wind Speed Gust Speed Precip Events Conditions
12:53 AM 8.1 °F -12.2 °F 3.9 °F 83% 30.00 in 5.0 mi NE 21.9 mph - N/A Snow Blowing Snow
1:41 AM 6.8 °F -14.7 °F 3.2 °F 85% 29.97 in 2.5 mi NE 24.2 mph 32.2 mph N/A Snow Blowing Snow
1:53 AM 7.0 °F -14.5 °F 3.9 °F 87% 29.98 in 2.0 mi NE 24.2 mph - N/A Snow Blowing Snow
2:04 AM 6.8 °F -13.8 °F 3.2 °F 85% 29.97 in 3.0 mi NE 21.9 mph - N/A Snow Blowing Snow
2:51 AM 6.8 °F -14.7 °F 3.2 °F 85% 29.96 in 2.5 mi NE 24.2 mph 31.1 mph N/A Snow Blowing Snow
2:53 AM 7.0 °F -14.5 °F 3.9 °F 87% 29.96 in 2.5 mi NE 24.2 mph 31.1 mph N/A Snow Blowing Snow
3:43 AM 6.8 °F -15.1 °F 3.2 °F 85% 29.92 in 1.5 mi NE 25.3 mph 34.5 mph N/A Snow Blowing Snow
3:53 AM 6.1 °F -16.5 °F 3.9 °F 91% 29.92 in 1.5 mi NE 26.5 mph 34.5 mph N/A Snow Blowing Snow
4:44 AM 6.8 °F -16.6 °F 3.2 °F 85% 29.90 in 0.8 mi NE 29.9 mph 34.5 mph N/A Snow Blowing Snow
4:53 AM 6.1 °F -17.2 °F 3.0 °F 87% 29.91 in 0.8 mi NE 28.8 mph 34.5 mph N/A Snow Blowing Snow
5:10 AM 6.8 °F -15.9 °F 3.2 °F 85% 29.90 in 1.0 mi NE 27.6 mph 35.7 mph N/A Snow Blowing Snow
5:53 AM 5.0 °F -18.3 °F 1.9 °F 87% 29.90 in 1.0 mi NE 27.6 mph 35.7 mph N/A Snow Blowing Snow
6:53 AM 5.0 °F -19.7 °F 1.9 °F 87% 29.88 in 1.2 mi NNE 32.2 mph 35.7 mph N/A Snow Blowing Snow
7:39 AM 3.2 °F -21.8 °F 1.4 °F 92% 29.87 in 0.8 mi NE 31.1 mph - N/A Snow Blowing Snow
7:53 AM 3.9 °F -20.1 °F 1.0 °F 88% 29.88 in 0.8 mi NE 28.8 mph 36.8 mph N/A Snow Blowing Snow
8:07 AM 3.2 °F -20.7 °F 1.4 °F 92% 29.87 in 1.0 mi NE 27.6 mph 38.0 mph N/A Snow Blowing Snow
8:17 AM 3.2 °F -21.1 °F 1.4 °F 92% 29.87 in 1.5 mi NNE 28.8 mph 34.5 mph N/A Snow Blowing Snow
8:31 AM 3.2 °F -21.8 °F 1.4 °F 92% 29.87 in 0.8 mi NE 31.1 mph 38.0 mph N/A Snow Blowing Snow
8:43 AM 3.2 °F -22.2 °F 1.4 °F 92% 29.88 in 0.5 mi NE 32.2 mph 39.1 mph 0.00 in Snow Snow
8:53 AM 3.9 °F -20.5 °F 1.0 °F 88% 29.88 in 0.8 mi NE 29.9 mph 38.0 mph 0.00 in Snow Blowing Snow
8:57 AM 3.2 °F -21.8 °F 1.4 °F 92% 29.87 in 1.0 mi NE 31.1 mph 36.8 mph N/A Snow Blowing Snow
9:05 AM 3.2 °F -22.2 °F 1.4 °F 92% 29.87 in 0.8 mi NNE 32.2 mph 39.1 mph N/A Snow Blowing Snow
9:14 AM 3.2 °F -22.5 °F 1.4 °F 92% 29.88 in 1.0 mi NNE 33.4 mph 41.4 mph N/A Snow Blowing Snow
9:53 AM 3.0 °F -21.7 °F -0.0 °F 87% 29.88 in 1.0 mi NE 29.9 mph 38.0 mph N/A Snow Blowing Snow
10:26 AM 3.2 °F -22.2 °F -0.4 °F 85% 29.88 in 0.8 mi NNE 32.2 mph - N/A Snow Blowing Snow
10:41 AM 3.2 °F -21.8 °F -0.4 °F 85% 29.88 in 1.0 mi NNE 31.1 mph - N/A Snow Blowing Snow
10:55 AM 1.4 °F -24.6 °F -0.4 °F 92% 29.88 in 0.8 mi NNE 32.2 mph 38.0 mph N/A Snow Blowing Snow
11:07 AM 1.4 °F -25.0 °F -0.4 °F 92% 29.88 in 0.8 mi NNE 33.4 mph 39.1 mph N/A Snow Blowing Snow
11:25 AM 1.4 °F -23.5 °F -0.4 °F 92% 29.89 in 1.0 mi NNE 28.8 mph 36.8 mph N/A Snow Blowing Snow
11:53 AM 3.0 °F -20.6 °F -0.9 °F 84% 29.91 in 1.0 mi NNE 26.5 mph 41.4 mph N/A Snow Blowing Snow
12:01 PM 3.2 °F -22.9 °F -0.4 °F 85% 29.90 in 0.8 mi NE 34.5 mph 40.3 mph N/A Snow Blowing Snow
12:53 PM 3.0 °F -20.6 °F -0.0 °F 87% 29.92 in 0.8 mi NNE 26.5 mph 35.7 mph 0.01 in Snow Blowing Snow
1:02 PM 3.2 °F -19.9 °F -0.4 °F 85% 29.91 in 1.0 mi NNE 25.3 mph 38.0 mph N/A Snow Blowing Snow
1:44 PM 3.2 °F -20.7 °F 1.4 °F 92% 29.92 in 0.8 mi NNE 27.6 mph 39.1 mph N/A Snow Blowing Snow
1:51 PM 5.0 °F -19.7 °F 1.4 °F 85% 29.91 in 1.2 mi NNE 32.2 mph 36.8 mph N/A Snow Blowing Snow
1:53 PM 5.0 °F -17.5 °F 1.0 °F 84% 29.92 in 1.0 mi NNE 25.3 mph 36.8 mph 0.00 in Snow Light Snow
2:01 PM 5.0 °F -18.3 °F 1.4 °F 85% 29.91 in 0.8 mi NNE 27.6 mph 36.8 mph 0.00 in Snow Light Snow
2:19 PM 5.0 °F -18.3 °F 1.4 °F 85% 29.92 in 0.2 mi North 27.6 mph 34.5 mph 0.00 in Snow Heavy Snow
2:53 PM 3.0 °F -19.3 °F -0.0 °F 87% 29.94 in 0.5 mi NNE 23.0 mph 38.0 mph 0.00 in Snow Blowing Snow
3:10 PM 3.2 °F -20.7 °F -0.4 °F 85% 29.94 in 0.8 mi NNE 27.6 mph 35.7 mph N/A Snow Blowing Snow
3:19 PM 3.2 °F -20.7 °F 1.4 °F 92% 29.94 in 1.0 mi North 27.6 mph 33.4 mph N/A Snow Blowing Snow
3:24 PM 3.2 °F -21.1 °F -0.4 °F 85% 29.94 in 0.5 mi North 28.8 mph 33.4 mph N/A Snow Blowing Snow
3:35 PM 3.2 °F -20.3 °F -0.4 °F 85% 29.94 in 1.0 mi NNE 26.5 mph 35.7 mph N/A Snow Blowing Snow
3:53 PM 3.9 °F -20.5 °F -0.0 °F 84% 29.95 in 1.0 mi NNE 29.9 mph 35.7 mph N/A Snow Blowing Snow
4:53 PM 3.0 °F -21.0 °F -0.0 °F 87% 29.96 in 1.5 mi NNE 27.6 mph 35.7 mph N/A Snow Blowing Snow
5:53 PM 1.9 °F -22.4 °F -0.9 °F 88% 29.98 in 1.2 mi North 27.6 mph - N/A Snow Blowing Snow
6:53 PM 1.9 °F -21.6 °F -2.0 °F 83% 30.02 in 1.2 mi North 25.3 mph 31.1 mph N/A Snow Blowing Snow
7:34 PM 1.4 °F -18.8 °F -2.2 °F 85% 30.04 in 3.0 mi NNE 17.3 mph 26.5 mph N/A Snow Blowing Snow
7:53 PM 1.0 °F -20.4 °F -2.0 °F 87% 30.07 in 4.0 mi NNE 19.6 mph 28.8 mph N/A Snow Blowing Snow
8:53 PM 1.0 °F -19.3 °F -2.9 °F 83% 30.10 in 5.0 mi NNE 17.3 mph 27.6 mph N/A Snow Blowing Snow
9:53 PM -0.0 °F -22.4 °F -2.9 °F 88% 30.13 in 4.0 mi NNE 20.7 mph 29.9 mph N/A Snow Blowing Snow
10:53 PM -0.0 °F -18.7 °F -2.9 °F 88% 30.15 in 10.0 mi NNE 13.8 mph - N/A Snow Blowing Snow
11:29 PM -0.4 °F -19.2 °F -2.2 °F 92% 30.16 in 10.0 mi NNE 13.8 mph - N/A Snow Blowing Snow
11:53 PM -0.0 °F -18.0 °F -2.9 °F 88% 30.17 in 10.0 mi NNE 12.7 mph - N/A   Mostly Cloudy